Regional Weather Roundup
Issued by NWS Northern Indiana

Home | Current Version | Previous Version | Graphics & Text | Print | Product List | Glossary On
Versions: 1 2 3 4 5 6 7 8 9 10 11 12 13 14 15 16 17 18 19 20 21 22 23 24 25 26 27 28 29 30 31 32 33 34 35 36 37 38 39 40 41 42 43 44 45 46 47 48 49 50
000
ASUS43 KIWX 010610
RWRIWX

KIWX WEATHER ROUNDUP
NATIONAL WEATHER SERVICE NORTHERN INDIANA
200 AM EDT FRI AUG 01 2014

NOTE: "FAIR" INDICATES FEW OR NO CLOUDS BELOW 12,000 FEET WITH NO
SIGNIFICANT WEATHER AND/OR OBSTRUCTIONS TO VISIBILITY.

* THESE STATIONS ARE NOT UNDER NWS QUALITY CONTROL. THEY ALSO MAY NOT
  REPORT WEATHER SUCH AS PRECIPITATION OR FOG.

INZ001>027-010700-
NORTHERN INDIANA

CITY           SKY/WX    TMP DP  RH WIND       PRES   REMARKS
GARY*          CLEAR     63  60  92 CALM      30.06S
VALPARAISO     PTCLDY    65  61  87 CALM      30.07S
6HR MIN TEMP:  64; 6HR MAX TEMP:  77;

MICHIGAN CITY* CLOUDY    63  61  94 CALM      30.06S
LAPORTE*       PTCLDY    60  60 100 CALM      30.07S FOG
6HR MIN TEMP:  59; 6HR MAX TEMP:  68;

KNOX*          PTCLDY    62  58  90 S5        30.07R
6HR MIN TEMP:  44; 6HR MAX TEMP:  86;

SOUTH BEND     CLEAR     66  60  81 CALM      30.07S
6HR MIN TEMP:  65; 6HR MAX TEMP:  74;

GOSHEN         PTCLDY    65  60  84 SW3       30.07S
6HR MIN TEMP:  65; 6HR MAX TEMP:  75;

MONTICELLO*    CLEAR     64  61  91 CALM      30.07F
6HR MIN TEMP:  62; 6HR MAX TEMP:  75;

LOGANSPORT*    CLEAR     59  55  88 S6        30.08F
ROCHESTER*     CLEAR     68  61  77 SW3       30.08F
WARSAW*        PTCLDY    64  61  88 CALM      30.08S
ANGOLA*        MOCLDY    61  59  94 CALM      30.08S
FORT WAYNE     PTCLDY    63  59  87 CALM      30.09S
6HR MIN TEMP:  63; 6HR MAX TEMP:  77;

HUNTINGTON*    CLEAR     62  60  93 CALM      30.08F
6HR MIN TEMP:  61; 6HR MAX TEMP:  76;

PERU/GRISSOM   CLEAR     61  61 100 S5        30.08F
6HR MIN TEMP:  61; 6HR MAX TEMP:  76;

MARION*        CLEAR     57  56  95 CALM      30.10F FOG
6HR MIN TEMP:  32; 6HR MAX TEMP:  89;


$$
INZ028>050-010700-
CENTRAL INDIANA

CITY           SKY/WX    TMP DP  RH WIND       PRES   REMARKS
LAFAYETTE      CLEAR     62  61  96 CALM      30.08S
6HR MIN TEMP:  61; 6HR MAX TEMP:  76;

KOKOMO*        CLEAR     61  57  88 CALM      30.09S
6HR MIN TEMP:  59; 6HR MAX TEMP:  75;

MUNCIE*        CLEAR     62  58  86 S3        30.10F
6HR MIN TEMP:  60; 6HR MAX TEMP:  75;

INDIANAPOLIS   CLEAR     67  61  81 CALM      30.08F
6HR MIN TEMP:  66; 6HR MAX TEMP:  76;


$$
MIZ043>046-050>051-056>058-064>065-071>073-077>080-010700-
SOUTHWEST LOWER MICHIGAN

CITY           SKY/WX    TMP DP  RH WIND       PRES   REMARKS
BATTLE CREEK   CLEAR     64  58  80 SW6       30.06S
6HR MIN TEMP:  64; 6HR MAX TEMP:  75;

BENTON HARBOR  CLEAR     61  59  93 CALM      30.05S FOG
6HR MIN TEMP:  60; 6HR MAX TEMP:  76;

COLDWATER*     CLEAR     65  60  86 CALM      30.07S
6HR MIN TEMP:  62; 6HR MAX TEMP:  75;

HILLSDALE*     CLEAR     62  60  91 CALM      30.08S
6HR MIN TEMP:  58; 6HR MAX TEMP:  74;

HOLLAND        CLEAR     65  59  81 CALM      30.04S
6HR MIN TEMP:  63; 6HR MAX TEMP:  77;

GRAND RAPIDS   PTCLDY    67  61  81 SW6       30.03F
6HR MIN TEMP:  65; 6HR MAX TEMP:  76;

KALAMAZOO      CLEAR     64  59  83 SW7       30.06S
6HR MIN TEMP:  63; 6HR MAX TEMP:  77;

STURGIS*       MOCLDY    63  61  94 CALM      30.07S
THREE RIVERS*  FAIR      64  61  88 CALM      30.07S

$$
OHZ001>008-015>018-024>025-010700-
NORTHWEST OHIO

CITY           SKY/WX    TMP DP  RH WIND       PRES   REMARKS
WAUSEON*       FAIR      61  59  94 CALM      30.07F
DEFIANCE       PTCLDY    64  60  87 CALM      30.08S
6HR MIN TEMP:  63; 6HR MAX TEMP:  72;

FINDLAY        MOCLDY    65  60  84 S6        30.08S
6HR MIN TEMP:  65; 6HR MAX TEMP:  77;

TOLEDO EXPRESS PTCLDY    61  59  93 CALM      30.07S
6HR MIN TEMP:  60; 6HR MAX TEMP:  75;

TOLEDO METCALF PTCLDY    63  58  83 CALM      30.07F
6HR MIN TEMP:  63; 6HR MAX TEMP:  75; 6HR PCP: TRACE;

LIMA           PTCLDY    64  59  83 S8        30.10F
6HR MIN TEMP:  63; 6HR MAX TEMP:  77;


$$
&&


USA.gov is the U.S. government's official web portal to all federal, state and local government web resources and services.